Time,TemperatureF,DewpointF,PressureIn,WindDirection,WindDirectionDegrees,WindSpeedMPH,WindSpeedGustMPH,Humidity,HourlyPrecipIn,Conditions,Clouds,dailyrainin,SoftwareType,DateUTC
2013-02-19 00:01:00,21.0,20.0,-100.00,North,-999,0.0,0.0,97,-99.99,,,-99.99,,2013-02-19 07:01:00,
2013-02-19 00:11:00,20.0,20.0,-100.00,North,-999,0.0,0.0,98,-99.99,,,-99.99,,2013-02-19 07:11:00,
2013-02-19 00:21:00,20.0,20.0,-100.00,North,-999,0.0,0.0,98,-99.99,,,-99.99,,2013-02-19 07:21:00,
2013-02-19 00:32:00,20.0,20.0,-100.00,North,-999,0.0,0.0,98,-99.99,,,-99.99,,2013-02-19 07:32:00,
2013-02-19 00:42:00,20.0,20.0,-100.00,North,-999,0.0,0.0,98,-99.99,,,-99.99,,2013-02-19 07:42:00,
2013-02-19 00:51:00,20.0,20.0,-100.00,North,-999,0.0,0.0,98,-99.99,,,-99.99,,2013-02-19 07:51:00,
2013-02-19 01:01:00,20.0,20.0,-100.00,North,-999,0.0,0.0,98,-99.99,,,-99.99,,2013-02-19 08:01:00,
2013-02-19 01:11:00,20.0,20.0,-100.00,North,-999,0.0,0.0,98,-99.99,,,-99.99,,2013-02-19 08:11:00,
2013-02-19 01:21:00,20.0,20.0,-100.00,North,-999,0.0,0.0,98,-99.99,,,-99.99,,2013-02-19 08:21:00,
2013-02-19 01:31:00,21.0,21.0,-100.00,North,-999,0.0,0.0,98,-99.99,,,-99.99,,2013-02-19 08:31:00,
2013-02-19 01:42:00,21.0,21.0,-100.00,North,-999,0.0,0.0,98,-99.99,,,-99.99,,2013-02-19 08:42:00,
2013-02-19 01:52:00,21.0,20.0,-100.00,North,-999,0.0,0.0,98,-99.99,,,-99.99,,2013-02-19 08:52:00,
2013-02-19 02:01:00,21.0,20.0,-100.00,North,-999,0.0,0.0,98,-99.99,,,-99.99,,2013-02-19 09:01:00,
2013-02-19 02:11:00,21.0,20.0,-100.00,North,-999,0.0,0.0,98,-99.99,,,-99.99,,2013-02-19 09:11:00,
2013-02-19 02:21:00,21.0,20.0,-100.00,North,-999,0.0,0.0,98,-99.99,,,-99.99,,2013-02-19 09:21:00,
2013-02-19 02:31:00,21.0,21.0,-100.00,North,-999,0.0,0.0,98,-99.99,,,-99.99,,2013-02-19 09:31:00,
2013-02-19 02:41:00,21.0,21.0,-100.00,North,-999,0.0,0.0,98,-99.99,,,-99.99,,2013-02-19 09:41:00,
2013-02-19 02:52:00,21.0,20.0,-100.00,North,-999,0.0,0.0,98,-99.99,,,-99.99,,2013-02-19 09:52:00,
2013-02-19 03:01:00,21.0,20.0,-100.00,North,-999,0.0,0.0,98,-99.99,,,-99.99,,2013-02-19 10:01:00,
2013-02-19 03:11:00,21.0,21.0,-100.00,North,-999,0.0,0.0,98,-99.99,,,-99.99,,2013-02-19 10:11:00,
2013-02-19 03:21:00,21.0,21.0,-100.00,North,-999,0.0,0.0,98,-99.99,,,-99.99,,2013-02-19 10:21:00,
2013-02-19 03:31:00,21.0,21.0,-100.00,North,-999,0.0,0.0,98,-99.99,,,-99.99,,2013-02-19 10:31:00,
2013-02-19 03:41:00,21.0,21.0,-100.00,North,-999,0.0,0.0,98,-99.99,,,-99.99,,2013-02-19 10:41:00,
2013-02-19 03:52:00,22.0,21.0,-100.00,North,-999,0.0,0.0,98,-99.99,,,-99.99,,2013-02-19 10:52:00,
2013-02-19 04:01:00,22.0,21.0,-100.00,North,-999,0.0,0.0,98,-99.99,,,-99.99,,2013-02-19 11:01:00,
2013-02-19 04:11:00,22.0,22.0,-100.00,North,-999,0.0,0.0,98,-99.99,,,-99.99,,2013-02-19 11:11:00,
2013-02-19 04:21:00,22.0,22.0,-100.00,North,-999,0.0,0.0,98,-99.99,,,-99.99,,2013-02-19 11:21:00,
2013-02-19 04:32:00,22.0,21.0,-100.00,North,-999,0.0,0.0,98,-99.99,,,-99.99,,2013-02-19 11:32:00,
2013-02-19 04:42:00,22.0,21.0,-100.00,North,-999,0.0,0.0,98,-99.99,,,-99.99,,2013-02-19 11:42:00,
2013-02-19 04:52:00,22.0,22.0,-100.00,North,-999,0.0,0.0,98,-99.99,,,-99.99,,2013-02-19 11:52:00,
2013-02-19 05:01:00,22.0,22.0,-100.00,North,-999,0.0,0.0,98,-99.99,,,-99.99,,2013-02-19 12:01:00,
2013-02-19 05:12:00,22.0,22.0,-100.00,North,-999,0.0,0.0,98,-99.99,,,-99.99,,2013-02-19 12:12:00,
2013-02-19 05:21:00,22.0,22.0,-100.00,North,-999,0.0,0.0,98,-99.99,,,-99.99,,2013-02-19 12:21:00,
2013-02-19 05:32:00,22.0,22.0,-100.00,North,-999,0.0,0.0,98,-99.99,,,-99.99,,2013-02-19 12:32:00,
2013-02-19 05:42:00,22.0,22.0,-100.00,North,-999,0.0,0.0,98,-99.99,,,-99.99,,2013-02-19 12:42:00,
2013-02-19 05:52:00,22.0,22.0,-100.00,North,-999,0.0,0.0,98,-99.99,,,-99.99,,2013-02-19 12:52:00,
2013-02-19 06:01:00,22.0,22.0,-100.00,North,-999,0.0,0.0,98,-99.99,,,-99.99,,2013-02-19 13:01:00,
2013-02-19 06:11:00,23.0,22.0,-100.00,North,-999,0.0,0.0,97,-99.99,,,-99.99,,2013-02-19 13:11:00,
2013-02-19 06:22:00,23.0,22.0,-100.00,North,-999,0.0,0.0,97,-99.99,,,-99.99,,2013-02-19 13:22:00,
2013-02-19 06:31:00,23.0,22.0,-100.00,North,-999,0.0,0.0,97,-99.99,,,-99.99,,2013-02-19 13:31:00,
2013-02-19 06:41:00,23.0,22.0,-100.00,North,-999,0.0,0.0,97,-99.99,,,-99.99,,2013-02-19 13:41:00,
2013-02-19 06:52:00,23.0,22.0,-100.00,North,-999,0.0,0.0,97,-99.99,,,-99.99,,2013-02-19 13:52:00,
2013-02-19 07:01:00,23.0,22.0,-100.00,North,-999,0.0,0.0,97,-99.99,,,-99.99,,2013-02-19 14:01:00,
2013-02-19 07:11:00,22.0,22.0,-100.00,NE,50,4.0,5.0,97,-99.99,,,-99.99,,2013-02-19 14:11:00,
2013-02-19 07:21:00,22.0,22.0,-100.00,NE,50,4.0,5.0,97,-99.99,,,-99.99,,2013-02-19 14:21:00,
2013-02-19 07:32:00,22.0,21.0,-100.00,NE,55,1.0,3.0,96,-99.99,,,-99.99,,2013-02-19 14:32:00,
2013-02-19 07:41:00,22.0,21.0,-100.00,NE,55,1.0,3.0,96,-99.99,,,-99.99,,2013-02-19 14:41:00,
2013-02-19 07:52:00,22.0,21.0,-100.00,North,-999,0.0,0.0,96,-99.99,,,-99.99,,2013-02-19 14:52:00,
2013-02-19 08:01:00,22.0,21.0,-100.00,North,-999,0.0,0.0,96,-99.99,,,-99.99,,2013-02-19 15:01:00,
2013-02-19 08:11:00,22.0,21.0,-100.00,North,-999,0.0,0.0,96,-99.99,,,-99.99,,2013-02-19 15:11:00,
2013-02-19 08:21:00,22.0,21.0,-100.00,North,-999,0.0,0.0,96,-99.99,,,-99.99,,2013-02-19 15:21:00,
2013-02-19 08:31:00,22.0,21.0,-100.00,North,-999,0.0,0.0,96,-99.99,,,-99.99,,2013-02-19 15:31:00,
2013-02-19 08:42:00,22.0,21.0,-100.00,North,-999,0.0,0.0,96,-99.99,,,-99.99,,2013-02-19 15:42:00,
2013-02-19 08:52:00,22.0,21.0,-100.00,North,-999,0.0,0.0,96,-99.99,,,-99.99,,2013-02-19 15:52:00,
2013-02-19 09:01:00,22.0,21.0,-100.00,North,-999,0.0,0.0,96,-99.99,,,-99.99,,2013-02-19 16:01:00,
2013-02-19 09:11:00,23.0,22.0,-100.00,North,-999,0.0,0.0,96,-99.99,,,-99.99,,2013-02-19 16:11:00,
2013-02-19 09:21:00,23.0,22.0,-100.00,North,-999,0.0,0.0,96,-99.99,,,-99.99,,2013-02-19 16:21:00,
2013-02-19 09:32:00,23.0,22.0,-100.00,North,-999,0.0,0.0,96,-99.99,,,-99.99,,2013-02-19 16:32:00,
2013-02-19 09:41:00,23.0,22.0,-100.00,North,-999,0.0,0.0,96,-99.99,,,-99.99,,2013-02-19 16:41:00,
2013-02-19 09:51:00,25.0,24.0,-100.00,North,-999,0.0,0.0,94,-99.99,,,-99.99,,2013-02-19 16:51:00,
2013-02-19 10:01:00,25.0,24.0,-100.00,North,-999,0.0,0.0,94,-99.99,,,-99.99,,2013-02-19 17:01:00,
2013-02-19 10:11:00,25.0,23.0,-100.00,NE,50,6.0,6.0,93,-99.99,,,-99.99,,2013-02-19 17:11:00,
2013-02-19 10:21:00,25.0,23.0,-100.00,NE,50,6.0,6.0,93,-99.99,,,-99.99,,2013-02-19 17:21:00,
2013-02-19 10:32:00,26.0,22.0,-100.00,NE,50,3.0,6.0,82,-99.99,,,-99.99,,2013-02-19 17:32:00,
2013-02-19 10:42:00,26.0,22.0,-100.00,NE,50,3.0,6.0,82,-99.99,,,-99.99,,2013-02-19 17:42:00,
2013-02-19 10:52:00,27.0,21.0,-100.00,NE,45,7.0,8.0,76,-99.99,,,-99.99,,2013-02-19 17:52:00,
2013-02-19 11:01:00,27.0,21.0,-100.00,NE,45,7.0,8.0,76,-99.99,,,-99.99,,2013-02-19 18:01:00,
2013-02-19 11:11:00,28.0,20.0,-100.00,NE,40,7.0,9.0,72,-99.99,,,-99.99,,2013-02-19 18:11:00,
2013-02-19 11:21:00,28.0,20.0,-100.00,NE,40,7.0,9.0,72,-99.99,,,-99.99,,2013-02-19 18:21:00,
2013-02-19 11:31:00,29.0,20.0,-100.00,NE,35,6.0,7.0,69,-99.99,,,-99.99,,2013-02-19 18:31:00,
2013-02-19 11:41:00,29.0,20.0,-100.00,NE,35,6.0,7.0,69,-99.99,,,-99.99,,2013-02-19 18:41:00,
2013-02-19 11:51:00,28.0,19.0,-100.00,NNE,15,7.0,8.0,67,-99.99,,,-99.99,,2013-02-19 18:51:00,
2013-02-19 12:01:00,28.0,19.0,-100.00,NNE,15,7.0,8.0,67,-99.99,,,-99.99,,2013-02-19 19:01:00,
2013-02-19 12:11:00,27.0,18.0,-100.00,North,355,11.0,12.0,66,-99.99,,,-99.99,,2013-02-19 19:11:00,
2013-02-19 12:21:00,27.0,18.0,-100.00,North,355,11.0,12.0,66,-99.99,,,-99.99,,2013-02-19 19:21:00,
2013-02-19 12:31:00,28.0,18.0,-100.00,NNE,25,7.0,8.0,65,-99.99,,,-99.99,,2013-02-19 19:31:00,
2013-02-19 12:41:00,28.0,18.0,-100.00,NNE,25,7.0,8.0,65,-99.99,,,-99.99,,2013-02-19 19:41:00,
2013-02-19 12:51:00,29.0,18.0,-100.00,North,10,9.0,11.0,64,-99.99,,,-99.99,,2013-02-19 19:51:00,
2013-02-19 13:01:00,29.0,18.0,-100.00,North,10,9.0,11.0,64,-99.99,,,-99.99,,2013-02-19 20:01:00,
2013-02-19 13:11:00,28.0,19.0,-100.00,North,355,10.0,12.0,66,-99.99,,,-99.99,,2013-02-19 20:11:00,
2013-02-19 13:21:00,28.0,19.0,-100.00,North,355,10.0,12.0,66,-99.99,,,-99.99,,2013-02-19 20:21:00,
2013-02-19 13:31:00,28.0,19.0,-100.00,North,10,10.0,12.0,68,-99.99,,,-99.99,,2013-02-19 20:31:00,
2013-02-19 13:41:00,28.0,19.0,-100.00,North,10,10.0,12.0,68,-99.99,,,-99.99,,2013-02-19 20:41:00,
2013-02-19 13:52:00,28.0,19.0,-100.00,North,10,8.0,8.0,68,-99.99,,,-99.99,,2013-02-19 20:52:00,
2013-02-19 14:01:00,28.0,19.0,-100.00,North,10,8.0,8.0,68,-99.99,,,-99.99,,2013-02-19 21:01:00,
2013-02-19 14:11:00,29.0,19.0,-100.00,NNE,15,9.0,11.0,68,-99.99,,,-99.99,,2013-02-19 21:11:00,
2013-02-19 14:21:00,29.0,19.0,-100.00,NNE,15,9.0,11.0,68,-99.99,,,-99.99,,2013-02-19 21:21:00,
2013-02-19 14:31:00,29.0,19.0,-100.00,North,355,8.0,9.0,68,-99.99,,,-99.99,,2013-02-19 21:31:00,
2013-02-19 14:42:00,29.0,19.0,-100.00,North,355,8.0,9.0,68,-99.99,,,-99.99,,2013-02-19 21:42:00,
2013-02-19 14:51:00,29.0,19.0,-100.00,North,350,9.0,12.0,67,-99.99,,,-99.99,,2013-02-19 21:51:00,
2013-02-19 15:01:00,29.0,19.0,-100.00,North,350,9.0,12.0,67,-99.99,,,-99.99,,2013-02-19 22:01:00,
2013-02-19 15:11:00,29.0,19.0,-100.00,North,355,10.0,12.0,66,-99.99,,,-99.99,,2013-02-19 22:11:00,
2013-02-19 15:21:00,29.0,19.0,-100.00,North,355,10.0,12.0,66,-99.99,,,-99.99,,2013-02-19 22:21:00,
2013-02-19 15:32:00,29.0,18.0,-100.00,North,5,11.0,12.0,65,-99.99,,,-99.99,,2013-02-19 22:32:00,
2013-02-19 15:41:00,29.0,18.0,-100.00,North,5,11.0,12.0,65,-99.99,,,-99.99,,2013-02-19 22:41:00,
2013-02-19 15:52:00,29.0,18.0,-100.00,North,355,8.0,9.0,64,-99.99,,,-99.99,,2013-02-19 22:52:00,
2013-02-19 16:01:00,29.0,18.0,-100.00,North,355,8.0,9.0,64,-99.99,,,-99.99,,2013-02-19 23:01:00,
2013-02-19 16:11:00,31.0,19.0,-100.00,NNW,340,9.0,11.0,62,-99.99,,,-99.99,,2013-02-19 23:11:00,
2013-02-19 16:21:00,31.0,19.0,-100.00,NNW,340,9.0,11.0,62,-99.99,,,-99.99,,2013-02-19 23:21:00,
2013-02-19 16:32:00,29.0,18.0,-100.00,North,5,8.0,9.0,63,-99.99,,,-99.99,,2013-02-19 23:32:00,
2013-02-19 16:41:00,29.0,18.0,-100.00,North,5,8.0,9.0,63,-99.99,,,-99.99,,2013-02-19 23:41:00,
2013-02-19 16:52:00,30.0,19.0,-100.00,North,355,6.0,9.0,65,-99.99,,,-99.99,,2013-02-19 23:52:00,
2013-02-19 17:01:00,30.0,19.0,-100.00,North,355,6.0,9.0,65,-99.99,,,-99.99,,2013-02-20 00:01:00,
2013-02-19 17:11:00,29.0,19.0,-100.00,North,350,9.0,10.0,66,-99.99,,,-99.99,,2013-02-20 00:11:00,
2013-02-19 17:21:00,29.0,19.0,-100.00,North,350,9.0,10.0,66,-99.99,,,-99.99,,2013-02-20 00:21:00,
2013-02-19 17:31:00,29.0,19.0,-100.00,North,10,6.0,8.0,66,-99.99,,,0.00,,2013-02-20 00:31:00,
2013-02-19 17:41:00,29.0,19.0,-100.00,North,10,6.0,8.0,66,-99.99,,,0.00,,2013-02-20 00:41:00,
2013-02-19 17:51:00,28.0,19.0,-100.00,NNW,345,9.0,10.0,67,-99.99,,,0.00,,2013-02-20 00:51:00,
2013-02-19 18:02:00,28.0,19.0,-100.00,NNW,345,9.0,10.0,67,-99.99,,,0.00,,2013-02-20 01:02:00,
2013-02-19 18:11:00,27.0,19.0,-100.00,NNE,20,6.0,8.0,70,-99.99,,,0.00,,2013-02-20 01:11:00,
2013-02-19 18:21:00,27.0,19.0,-100.00,NNE,20,6.0,8.0,70,-99.99,,,0.00,,2013-02-20 01:21:00,
2013-02-19 18:31:00,27.0,19.0,-100.00,North,-999,0.0,0.0,71,-99.99,,,0.00,,2013-02-20 01:31:00,
2013-02-19 18:41:00,27.0,19.0,-100.00,North,-999,0.0,0.0,71,-99.99,,,0.00,,2013-02-20 01:41:00,
2013-02-19 18:51:00,26.0,18.0,-100.00,North,-999,0.0,0.0,72,-99.99,,,0.00,,2013-02-20 01:51:00,
2013-02-19 19:01:00,26.0,18.0,-100.00,North,-999,0.0,0.0,72,-99.99,,,0.00,,2013-02-20 02:01:00,
2013-02-19 19:11:00,25.0,18.0,-100.00,North,-999,0.0,0.0,77,-99.99,,,0.00,,2013-02-20 02:11:00,
2013-02-19 19:21:00,25.0,18.0,-100.00,North,-999,0.0,0.0,77,-99.99,,,0.00,,2013-02-20 02:21:00,
2013-02-19 19:31:00,24.0,19.0,-100.00,North,-999,0.0,0.0,80,-99.99,,,0.00,,2013-02-20 02:31:00,
2013-02-19 19:41:00,24.0,19.0,-100.00,North,-999,0.0,0.0,80,-99.99,,,0.00,,2013-02-20 02:41:00,
2013-02-19 19:52:00,24.0,20.0,-100.00,South,190,2.0,3.0,82,-99.99,,,0.00,,2013-02-20 02:52:00,
2013-02-19 20:01:00,24.0,20.0,-100.00,South,190,2.0,3.0,82,-99.99,,,0.00,,2013-02-20 03:01:00,
2013-02-19 20:12:00,23.0,19.0,-100.00,South,190,1.0,3.0,84,-99.99,,,0.00,,2013-02-20 03:12:00,
2013-02-19 20:21:00,23.0,19.0,-100.00,South,190,1.0,3.0,84,-99.99,,,0.00,,2013-02-20 03:21:00,
2013-02-19 20:32:00,22.0,18.0,-100.00,SSW,195,4.0,6.0,85,-99.99,,,0.00,,2013-02-20 03:32:00,
2013-02-19 20:41:00,22.0,18.0,-100.00,SSW,195,4.0,6.0,85,-99.99,,,0.00,,2013-02-20 03:41:00,
2013-02-19 20:51:00,22.0,18.0,-100.00,SW,235,1.0,3.0,86,-99.99,,,0.00,,2013-02-20 03:51:00,
2013-02-19 21:01:00,22.0,18.0,-100.00,SW,235,1.0,3.0,86,-99.99,,,0.00,,2013-02-20 04:01:00,
2013-02-19 21:11:00,22.0,18.0,-100.00,South,190,4.0,6.0,86,-99.99,,,0.00,,2013-02-20 04:11:00,
2013-02-19 21:21:00,22.0,18.0,-100.00,South,190,4.0,6.0,86,-99.99,,,0.00,,2013-02-20 04:21:00,
2013-02-19 21:31:00,20.0,17.0,-100.00,North,-999,0.0,0.0,87,-99.99,,,0.00,,2013-02-20 04:31:00,
2013-02-19 21:41:00,20.0,17.0,-100.00,North,-999,0.0,0.0,87,-99.99,,,0.00,,2013-02-20 04:41:00,
2013-02-19 21:51:00,20.0,17.0,-100.00,North,-999,0.0,0.0,88,-99.99,,,0.00,,2013-02-20 04:51:00,
2013-02-19 22:02:00,20.0,17.0,-100.00,North,-999,0.0,0.0,88,-99.99,,,0.00,,2013-02-20 05:02:00,
2013-02-19 22:12:00,20.0,17.0,-100.00,North,-999,0.0,0.0,90,-99.99,,,0.00,,2013-02-20 05:12:00,
2013-02-19 22:22:00,20.0,17.0,-100.00,North,-999,0.0,0.0,90,-99.99,,,0.00,,2013-02-20 05:22:00,
2013-02-19 22:32:00,19.0,17.0,-100.00,North,-999,0.0,0.0,90,-99.99,,,0.00,,2013-02-20 05:32:00,
2013-02-19 22:42:00,19.0,17.0,-100.00,North,-999,0.0,0.0,90,-99.99,,,0.00,,2013-02-20 05:42:00,
2013-02-19 22:52:00,19.0,16.0,-100.00,North,-999,0.0,0.0,90,-99.99,,,0.00,,2013-02-20 05:52:00,
2013-02-19 23:01:00,19.0,16.0,-100.00,North,-999,0.0,0.0,90,-99.99,,,0.00,,2013-02-20 06:01:00,
2013-02-19 23:11:00,18.0,16.0,-100.00,North,-999,0.0,0.0,91,-99.99,,,0.00,,2013-02-20 06:11:00,
2013-02-19 23:21:00,18.0,16.0,-100.00,North,-999,0.0,0.0,91,-99.99,,,0.00,,2013-02-20 06:21:00,
2013-02-19 23:31:00,18.0,16.0,-100.00,North,-999,0.0,0.0,92,-99.99,,,0.00,,2013-02-20 06:31:00,
2013-02-19 23:42:00,18.0,16.0,-100.00,North,-999,0.0,0.0,92,-99.99,,,0.00,,2013-02-20 06:42:00,
2013-02-19 23:51:00,18.0,16.0,-100.00,North,-999,0.0,0.0,92,-99.99,,,0.00,,2013-02-20 06:51:00,